This is the latest recevied weather packets stored in our database for station/object N4DWK. If no packets are shown the sender has not sent any weather packets the latest 10 day(s).
| Time | Temp. | Humidity | Pressure | Rain* | Wind** | Luminosity | Snow |
|---|---|---|---|---|---|---|---|
| 1788376805 | 35.56° C | 60% | 1016.5 hPa | 0 mm | - | 526 W/m² | - |
| 1788376505 | 36.67° C | 57% | 1016.5 hPa | 0 mm | - | 111 W/m² | - |
| 1788376205 | 37.22° C | 55% | 1016.6 hPa | 0 mm | - | 526 W/m² | - |
| 1788375905 | 37.78° C | 57% | 1016.6 hPa | 0 mm | - | 524 W/m² | - |
| 1788375607 | 37.22° C | 55% | 1016.7 hPa | 0 mm | - | 533 W/m² | - |
| 1788375306 | 36.67° C | 55% | 1016.7 hPa | 0 mm | - | 536 W/m² | - |
| 1788375005 | 36.11° C | 58% | 1016.8 hPa | 0 mm | - | 543 W/m² | - |
| 1788374706 | 36.67° C | 56% | 1016.9 hPa | 0 mm | - | 541 W/m² | - |
| 1788374406 | 36.67° C | 57% | 1017 hPa | 0 mm | - | 538 W/m² | - |
| 1788374105 | 36.67° C | 56% | 1017.1 hPa | 0 mm | - | 534 W/m² | - |
| 1788373805 | 36.67° C | 57% | 1017 hPa | 0 mm | - | 541 W/m² | - |
| 1788373506 | 36.11° C | 59% | 1017.2 hPa | 0 mm | - | 543 W/m² | - |
| 1788373206 | 36.11° C | 58% | 1017.2 hPa | 0 mm | - | 550 W/m² | - |
| 1788372906 | 35.56° C | 58% | 1017.2 hPa | 0 mm | - | 555 W/m² | - |
| 1788372606 | 36.11° C | 58% | 1017.3 hPa | 0 mm | - | 555 W/m² | - |
| 1788372306 | 35.56° C | 57% | 1017.3 hPa | 0 mm | - | 555 W/m² | - |
| 1788372006 | 36.11° C | 57% | 1017.2 hPa | 0 mm | - | 573 W/m² | - |
| 1788371705 | 36.11° C | 58% | 1017.2 hPa | 0 mm | - | 571 W/m² | - |
| 1788371405 | 35.56° C | 58% | 1017.3 hPa | 0 mm | - | 568 W/m² | - |
| 1788371106 | 35.56° C | 58% | 1017.3 hPa | 0 mm | - | 566 W/m² | - |
| 1788370806 | 35° C | 59% | 1017.3 hPa | 0 mm | - | 571 W/m² | - |
| 1788370506 | 35° C | 59% | 1017.3 hPa | 0 mm | - | 570 W/m² | - |
| 1788370206 | 35° C | 59% | 1017.3 hPa | 0 mm | - | 577 W/m² | - |
| 1788369906 | 35° C | 60% | 1017.3 hPa | 0 mm | - | 571 W/m² | - |
| 1788369606 | 34.44° C | 61% | 1017.3 hPa | 0 mm | - | 568 W/m² | - |
* Rain latest hour (hover to see other rain measurements)
** Current wind speed in m/s (hover to see current wind gust speed)